EW8909 Weather Reports


time (UTC)temp
C
wind
direction
speed
KPH
gust
KPH
rain 1hr
cm
rain 24hr
cm
rain mn
cm
humidity
%
barometer
mb
20260506113019 9 63 0.0 0.0 0.00 0.00 0.00 1 1017.4
20260506111512 8 63 0.0 0.0 0.00 0.00 0.00 1 1017.3
20260506110014 8 63 0.0 0.0 0.00 0.00 0.00 1 1017.1
20260506104504 8 63 0.0 0.0 0.00 0.00 0.00 1 1016.9
20260506103106 8 63 0.0 0.0 0.00 0.00 0.00 1 1016.7
20260506101556 8 63 0.0 0.0 0.00 0.00 0.00 1 1016.6
20260506100051 8 63 0.0 0.0 0.00 0.00 0.00 1 1016.5
20260506094547 8 63 0.0 0.0 0.00 0.00 0.00 1 1016.4
20260506093051 8 63 0.0 0.0 0.00 0.00 0.00 1 1016.2
20260506091540 8 63 0.0 0.0 0.00 0.00 0.00 1 1016.2
20260506090033 9 63 0.0 0.0 0.00 0.00 0.00 1 1016.1
20260506084529 9 63 0.0 0.0 0.00 0.00 0.00 1 1016.0
20260506083025 9 63 0.0 0.0 0.00 0.00 0.00 1 1016.0
20260506081523 10 63 0.0 0.0 0.00 0.00 0.00 1 1016.0
20260506073012 10 63 0.0 0.0 0.00 0.00 0.00 1 1015.7
20260506071507 10 63 0.0 0.0 0.00 0.00 0.00 1 1015.6
20260506070126 11 63 0.0 0.0 0.00 0.00 0.00 1 1015.4
20260506061546 11 63 0.0 3.2 0.00 0.00 0.00 1 1015.0
20260506044522 12 63 0.0 0.0 0.00 0.00 0.00 7 1014.0
20260506043016 13 63 0.0 1.6 0.00 0.00 0.00 12 1013.9
20260506041514 13 63 0.0 3.2 0.00 0.00 0.00 21 1013.6
20260506040007 13 63 0.0 1.6 0.00 0.00 0.00 29 1013.3
20260506034506 14 63 1.6 3.2 0.00 0.00 0.00 38 1012.9
20260506033059 15 63 1.6 3.2 0.00 0.00 0.00 48 1012.9
20260506031555 16 63 0.0 4.8 0.00 0.00 0.00 58 1012.7
20260506030052 17 63 0.0 4.8 0.00 0.00 0.00 61 1012.5
20260506024554 18 63 0.0 4.8 0.00 0.00 0.00 60 1012.5
20260506023042 19 69 1.6 8.0 0.00 0.00 0.00 59 1012.3
20260506021536 20 44 4.8 9.7 0.00 0.00 0.00 57 1012.3
20260506020032 20 63 4.8 12.9 0.00 0.00 0.00 56 1012.3
20260506014528 20 46 3.2 9.7 0.00 0.00 0.00 56 1012.2
20260506013028 20 93 4.8 17.7 0.00 0.00 0.00 56 1012.3
20260506011546 20 81 4.8 12.9 0.00 0.00 0.00 56 1012.3
20260506010017 20 350 6.4 12.9 0.00 0.00 0.00 56 1012.3
20260506004511 20 38 4.8 9.7 0.00 0.00 0.00 55 1012.1
20260506003008 20 44 3.2 9.7 0.00 0.00 0.00 56 1012.1
20260506001504 20 82 6.4 16.1 0.00 0.00 0.00 56 1012.2
20260506000121 20 54 8.0 16.1 0.00 0.00 0.00 56 1012.2
20260505234555 20 78 3.2 12.9 0.00 0.00 0.00 56 1012.3
20260505233055 20 61 6.4 16.1 0.00 0.00 0.00 56 1012.5
20260505231548 20 43 6.4 12.9 0.00 0.00 0.00 56 1012.6
20260505230140 19 90 3.2 12.9 0.00 0.00 0.00 56 1012.6
20260505224541 19 76 4.8 12.9 0.00 0.00 0.00 56 1012.8
20260505223032 19 76 4.8 12.9 0.00 0.00 0.00 56 1013.0
20260505221527 18 137 4.8 12.9 0.00 0.00 0.00 55 1013.1
20260505220022 18 56 6.4 11.3 0.00 0.00 0.00 55 1013.3
20260505214522 18 155 4.8 14.5 0.00 0.00 0.00 55 1013.5
20260505213016 18 23 3.2 9.7 0.00 0.00 0.00 55 1013.6
20260505211516 17 116 3.2 6.4 0.00 0.00 0.00 55 1013.8
20260505210006 17 303 1.6 6.4 0.00 0.00 0.00 55 1013.9
20260505204604 17 348 1.6 6.4 0.00 0.00 0.00 55 1014.0
20260505203102 17 334 3.2 6.4 0.00 0.00 0.00 55 1014.0
20260505201552 16 86 1.6 6.4 0.00 0.00 0.00 54 1014.1
20260505200049 16 51 0.0 4.8 0.00 0.00 0.00 53 1014.1
20260505194554 16 12 3.2 6.4 0.00 0.00 0.00 53 1014.2
20260505193039 16 144 0.0 4.8 0.00 0.00 0.00 50 1014.2
20260505191544 15 143 1.6 4.8 0.00 0.00 0.00 50 1014.3
20260505190038 15 71 0.0 3.2 0.00 0.00 0.00 48 1014.3
20260505184531 15 72 1.6 4.8 0.00 0.00 0.00 47 1014.3
20260505183020 15 5 1.6 4.8 0.00 0.00 0.00 45 1014.2
20260505181516 15 9 0.0 4.8 0.00 0.00 0.00 43 1014.1
20260505180013 15 10 1.6 6.4 0.00 0.00 0.00 43 1014.2
20260505174507 14 232 1.6 4.8 0.00 0.00 0.00 40 1014.2
20260505173003 14 111 1.6 4.8 0.00 0.00 0.00 35 1014.2
20260505171625 13 114 1.6 3.2 0.00 0.00 0.00 30 1014.2
20260505170054 13 115 1.6 4.8 0.00 0.00 0.00 29 1014.2
20260505164552 13 115 1.6 4.8 0.00 0.00 0.00 22 1014.2
20260505163048 13 116 0.0 3.2 0.00 0.00 0.00 20 1014.2
20260505161552 12 116 1.6 4.8 0.00 0.00 0.00 19 1014.2
20260505153042 12 116 1.6 3.2 0.00 0.00 0.00 1 1014.2
20260505151538 12 116 0.0 4.8 0.00 0.00 0.00 1 1014.3
20260505130104 12 116 0.0 1.6 0.00 0.00 0.00 1 1013.5
20260505124558 12 116 0.0 0.0 0.00 0.00 0.00 1 1013.4
20260505123058 12 116 0.0 0.0 0.00 0.00 0.00 1 1013.3
20260505121617 12 116 0.0 1.6 0.00 0.00 0.00 1 1013.3
20260505120042 12 116 1.6 3.2 0.00 0.00 0.00 1 1013.3
20260505114538 12 116 1.6 3.2 0.00 0.00 0.00 1 1013.2